GW3271 Weather Reports


Display with metric or nautical units.
time (UTC)temp
F
wind
direction
speed
MPH
gust
MPH
rain 1hr
in
rain 24hr
in
rain mn
in
humidity
%
barometer
mb
20260831060036 83 254 2.0 6.0 0.00 0.00 0.00 72 1015.9
20260831054532 84 268 0.0 4.0 0.00 0.00 0.00 70 1015.8
20260831053034 84 280 0.0 4.0 0.00 0.00 0.00 69 1015.7
20260831051542 85 300 1.0 4.0 0.00 0.00 0.00 68 1015.6
20260831050036 85 257 1.0 6.0 0.00 0.00 0.00 67 1015.7
20260831044535 86 0 1.0 7.0 0.00 0.00 0.00 66 1015.6
20260831043034 86 253 2.0 7.0 0.00 0.00 0.00 64 1015.5
20260831041548 87 254 2.0 8.0 0.00 0.00 0.00 62 1015.6
20260831040040 87 280 2.0 5.0 0.00 0.00 0.00 61 1015.6
20260831034533 88 108 1.0 10.0 0.00 0.00 0.00 60 1015.3
20260831033035 88 355 1.0 8.0 0.00 0.00 0.00 59 1015.1
20260831031535 88 331 2.0 7.0 0.00 0.00 0.00 58 1015.1
20260831030041 89 8 2.0 6.0 0.00 0.00 0.00 58 1015.0
20260831024538 89 116 3.0 8.0 0.00 0.00 0.00 57 1014.7
20260831023035 89 80 2.0 9.0 0.00 0.00 0.00 57 1014.4
20260831021534 90 89 4.0 9.0 0.00 0.00 0.00 57 1014.1
20260831020033 91 43 3.0 10.0 0.00 0.00 0.00 55 1013.8
20260831014536 92 149 2.0 13.0 0.00 0.00 0.00 52 1013.7
20260831013036 94 164 2.0 6.0 0.00 0.00 0.00 43 1013.1
20260831011537 94 131 2.0 5.0 0.00 0.00 0.00 43 1012.9
20260831010035 94 80 3.0 6.0 0.00 0.00 0.00 42 1013.0
20260831004535 94 86 2.0 7.0 0.00 0.00 0.00 42 1012.9
20260831003044 95 93 1.0 4.0 0.00 0.00 0.00 42 1012.9
20260831001533 95 90 2.0 6.0 0.00 0.00 0.00 42 1012.8
20260831000033 95 92 3.0 8.0 0.00 0.00 0.00 42 1012.8
20260830234542 95 102 4.0 9.0 0.00 0.00 0.00 42 1013.0
20260830233035 96 68 4.0 10.0 0.00 0.00 0.00 42 1013.0
20260830231537 97 60 4.0 10.0 0.00 0.00 0.00 40 1012.9
20260830230043 98 286 1.0 4.0 0.00 0.00 0.00 40 1012.8
20260830224534 98 88 1.0 6.0 0.00 0.00 0.00 39 1013.0
20260830223031 99 214 1.0 5.0 0.00 0.00 0.00 39 1013.0
20260830221532 99 247 2.0 4.0 0.00 0.00 0.00 39 1013.0
20260830220034 97 77 1.0 4.0 0.00 0.00 0.00 40 1013.2
20260830214532 98 45 2.0 6.0 0.00 0.00 0.00 41 1013.4
20260830213034 97 266 1.0 6.0 0.00 0.00 0.00 41 1013.7
20260830211531 98 75 3.0 8.0 0.00 0.00 0.00 40 1013.8
20260830210039 97 11 1.0 9.0 0.00 0.00 0.00 42 1014.0
20260830204534 97 70 2.0 6.0 0.00 0.00 0.00 43 1014.1
20260830203038 97 266 2.0 9.0 0.00 0.00 0.00 44 1014.4
20260830201538 97 294 3.0 10.0 0.00 0.00 0.00 45 1014.7
20260830200034 97 266 2.0 6.0 0.00 0.00 0.00 45 1015.0
20260830194535 97 304 3.0 7.0 0.00 0.00 0.00 44 1014.9
20260830193042 96 96 1.0 6.0 0.00 0.00 0.00 47 1015.2
20260830191534 95 0 2.0 7.0 0.00 0.00 0.00 49 1015.6
20260830190037 96 165 1.0 6.0 0.00 0.00 0.00 48 1015.9
20260830184534 94 94 3.0 8.0 0.00 0.00 0.00 50 1016.1
20260830183035 94 45 2.0 4.0 0.00 0.00 0.00 51 1016.4
20260830181534 95 240 2.0 5.0 0.00 0.00 0.00 49 1016.6
20260830180051 93 43 2.0 8.0 0.00 0.00 0.00 52 1016.9
20260830174535 91 244 1.0 9.0 0.00 0.00 0.00 55 1017.3
20260830173048 91 280 1.0 11.0 0.00 0.00 0.00 56 1017.6
20260830171534 92 138 3.0 6.0 0.00 0.00 0.00 55 1017.8
20260830170037 90 203 1.0 4.0 0.00 0.00 0.00 59 1017.8
20260830164539 90 79 2.0 6.0 0.00 0.00 0.00 59 1018.1
20260830163037 90 292 1.0 4.0 0.00 0.00 0.00 60 1018.2
20260830161535 89 90 1.0 5.0 0.00 0.00 0.00 62 1018.3
20260830160035 88 260 1.0 5.0 0.00 0.00 0.00 66 1018.3
20260830154533 87 226 2.0 7.0 0.00 0.00 0.00 65 1018.1
20260830153036 86 218 2.0 7.0 0.00 0.00 0.00 68 1018.0
20260830151535 86 216 1.0 5.0 0.00 0.00 0.00 70 1017.9
20260830150037 86 144 1.0 4.0 0.00 0.00 0.00 71 1017.8
20260830144534 83 250 2.0 6.0 0.00 0.00 0.00 75 1017.8
20260830143038 83 285 1.0 4.0 0.00 0.00 0.00 77 1017.8
20260830141542 82 251 1.0 6.0 0.00 0.00 0.00 79 1017.8
20260830140041 81 0 0.0 4.0 0.00 0.00 0.00 80 1017.7
20260830134533 81 259 2.0 6.0 0.00 0.00 0.00 80 1017.6
20260830133041 80 250 1.0 4.0 0.00 0.00 0.00 81 1017.4
20260830131533 79 263 0.0 2.0 0.00 0.00 0.00 82 1017.2
20260830130033 78 211 0.0 3.0 0.00 0.00 0.00 84 1017.2
20260830124535 77 207 0.0 3.0 0.00 0.00 0.00 85 1017.2
20260830123034 77 0 0.0 3.0 0.00 0.00 0.00 86 1017.0
20260830121531 77 212 0.0 1.0 0.00 0.00 0.00 86 1016.8
20260830120034 77 0 0.0 3.0 0.00 0.00 0.00 85 1016.7
20260830114552 77 243 0.0 1.0 0.00 0.00 0.00 85 1016.7
20260830113032 77 231 0.0 3.0 0.00 0.00 0.00 85 1016.6
20260830111531 77 0 0.0 2.0 0.00 0.00 0.00 84 1016.4
20260830110036 77 0 0.0 2.0 0.00 0.00 0.00 84 1016.3
20260830104537 77 0 0.0 1.0 0.00 0.00 0.00 83 1016.3
20260830103035 78 0 0.0 3.0 0.00 0.00 0.00 82 1016.3
20260830101532 78 0 0.0 2.0 0.00 0.00 0.00 81 1016.1
20260830100031 78 218 0.0 4.0 0.00 0.00 0.00 80 1016.1
20260830094536 78 269 0.0 3.0 0.00 0.00 0.00 79 1016.2
20260830093035 79 246 0.0 5.0 0.00 0.00 0.00 78 1016.0
20260830091535 79 275 0.0 2.0 0.00 0.00 0.00 77 1016.1
20260830090047 79 264 0.0 2.0 0.00 0.00 0.00 76 1016.2
20260830084533 80 0 0.0 2.0 0.00 0.00 0.00 75 1016.1
20260830083034 80 200 1.0 4.0 0.00 0.00 0.00 74 1016.2
20260830081540 80 230 0.0 4.0 0.00 0.00 0.00 74 1016.2
20260830080035 81 0 0.0 5.0 0.00 0.00 0.00 73 1016.3
20260830074535 81 229 1.0 6.0 0.00 0.00 0.00 72 1016.4
20260830073048 82 0 1.0 7.0 0.00 0.00 0.00 71 1016.4
20260830071542 82 271 0.0 3.0 0.00 0.00 0.00 71 1016.6
20260830070033 82 252 1.0 3.0 0.00 0.00 0.00 70 1016.7
20260830064534 83 263 1.0 7.0 0.00 0.00 0.00 69 1016.6
20260830063039 83 237 1.0 10.0 0.00 0.00 0.00 68 1016.6
20260830061534 83 295 1.0 4.0 0.00 0.00 0.00 68 1016.5